Terug naar catalogus

STARLINK-30938

ActiefCommunicatieVLEO
NORAD 58389·PAYLOAD·🇺🇸 United States

Gelanceerd Nov 20, 2023 vanaf Vandenberg Space Force Base

Loading…

Volgende Passages (komende 24 uur)

TLE

VersSource: CelesTrak SupGP

Epoch: Sep 15, 2026, 03:02 UTC

1 58389C 23178R   26258.12687500 -.00059567  00000+0 -17600-2 0  2583
2 58389  53.1570 198.5156 0001320  83.6870 230.1697 15.34419147    17

Volg STARLINK-30938 in realtime met AllMySat

Download on the App Store